TimeICT,TemperatureF,Dew PointF,Humidity,Sea Level PressureIn,VisibilityMPH,Wind Direction,Wind SpeedMPH,Gust SpeedMPH,PrecipitationIn,Events,Conditions,WindDirDegrees,DateUTC
12:00 AM,80.6,75.2,84,29.83,6.2,Calm,Calm,-,N/A,,Scattered Clouds,0,2013-03-22 17:00:00
12:30 AM,82.4,75.2,79,29.83,5.0,ENE,3.5,-,N/A,,Mostly Cloudy,60,2013-03-22 17:30:00
1:00 AM,83,78,81,29.77,6,NE,3.5,,,,Scattered Clouds,50,2013-03-22 18:00:00
1:00 AM,82.4,75.2,79,29.80,5.6,NE,4.6,-,N/A,,Mostly Cloudy,50,2013-03-22 18:00:00
1:30 AM,82.4,75.2,79,29.80,5.6,ENE,2.3,-,N/A,,Mostly Cloudy,70,2013-03-22 18:30:00
2:30 AM,82.4,73.4,74,29.77,5.6,ENE,4.6,-,N/A,,Scattered Clouds,60,2013-03-22 19:30:00
3:00 AM,82.4,73.4,74,29.77,5.6,East,3.5,-,N/A,,Scattered Clouds,80,2013-03-22 20:00:00
3:30 AM,82.4,73.4,74,29.77,5.6,ENE,5.8,-,N/A,,Scattered Clouds,70,2013-03-22 20:30:00
4:00 AM,82.4,75.2,79,29.77,5.6,NE,4.6,-,N/A,,Scattered Clouds,50,2013-03-22 21:00:00
4:30 AM,82.4,75.2,79,29.77,5.6,ENE,3.5,-,N/A,,Scattered Clouds,60,2013-03-22 21:30:00
5:00 AM,82.4,75.2,79,29.77,5.6,ENE,4.6,-,N/A,,Scattered Clouds,70,2013-03-22 22:00:00
5:30 AM,82.4,75.2,79,29.77,5.6,ENE,3.5,-,N/A,,Scattered Clouds,60,2013-03-22 22:30:00
6:00 AM,75.2,75.2,100,29.77,5.6,ENE,3.5,-,N/A,,Mostly Cloudy,70,2013-03-22 23:00:00
6:30 AM,80.6,73.4,79,29.80,5.6,NE,3.5,-,N/A,,Mostly Cloudy,40,2013-03-22 23:30:00
7:00 AM,82,76,77,29.75,6,ENE,3.5,,,,Scattered Clouds,60,2013-03-23 00:00:00
7:00 AM,82.4,75.2,79,29.80,6.2,ENE,4.6,-,N/A,,Mostly Cloudy,60,2013-03-23 00:00:00
7:30 AM,84.2,73.4,70,29.80,6.2,NE,5.8,-,N/A,,Mostly Cloudy,50,2013-03-23 00:30:00
8:00 AM,84.2,73.4,70,29.80,6.2,ENE,5.8,-,N/A,,Mostly Cloudy,60,2013-03-23 01:00:00
8:30 AM,84.2,73.4,70,29.83,6.2,ENE,5.8,-,N/A,,Mostly Cloudy,60,2013-03-23 01:30:00
9:00 AM,86.0,73.4,66,29.83,6.2,ENE,6.9,-,N/A,,Mostly Cloudy,60,2013-03-23 02:00:00
9:30 AM,87.8,73.4,62,29.83,6.2,East,5.8,-,N/A,,Mostly Cloudy,80,2013-03-23 02:30:00
10:00 AM,89.6,73.4,59,29.83,6.2,East,13.8,-,N/A,,Mostly Cloudy,90,2013-03-23 03:00:00
10:30 AM,89.6,71.6,55,29.83,6.2,East,12.7,-,N/A,,Mostly Cloudy,80,2013-03-23 03:30:00
11:00 AM,91.4,69.8,49,29.83,6.2,East,15.0,-,N/A,,Mostly Cloudy,90,2013-03-23 04:00:00
11:30 AM,91.4,69.8,49,29.83,6.2,East,13.8,-,N/A,,Mostly Cloudy,80,2013-03-23 04:30:00
12:00 PM,93.2,68.0,44,29.80,6.2,East,15.0,-,N/A,,Mostly Cloudy,100,2013-03-23 05:00:00
12:30 PM,93.2,69.8,46,29.80,6.2,ESE,11.5,-,N/A,,Mostly Cloudy,110,2013-03-23 05:30:00
1:00 PM,94,73,41,29.79,6,East,10.4,,,,Scattered Clouds,90,2013-03-23 06:00:00
1:00 PM,95.0,66.2,39,29.77,6.2,East,11.5,-,N/A,,Mostly Cloudy,100,2013-03-23 06:00:00
1:30 PM,95.0,68.0,41,29.77,6.2,East,10.4,-,N/A,,Mostly Cloudy,90,2013-03-23 06:30:00
2:00 PM,95.0,68.0,41,29.74,6.2,East,9.2,-,N/A,,Mostly Cloudy,100,2013-03-23 07:00:00
2:30 PM,96.8,68.0,39,29.74,6.2,ENE,15.0,-,N/A,,Mostly Cloudy,60,2013-03-23 07:30:00
3:00 PM,95.0,75.2,53,29.74,6.2,SSW,5.8,-,N/A,,Mostly Cloudy,210,2013-03-23 08:00:00
3:30 PM,91.4,75.2,59,29.71,6.2,WSW,13.8,-,N/A,,Mostly Cloudy,240,2013-03-23 08:30:00
4:00 PM,93.2,71.6,49,29.74,6.2,WSW,13.8,-,N/A,,Mostly Cloudy,240,2013-03-23 09:00:00
4:30 PM,91.4,75.2,59,29.74,6.2,West,13.8,-,N/A,,Mostly Cloudy,280,2013-03-23 09:30:00
5:00 PM,89.6,73.4,59,29.74,6.2,West,13.8,-,N/A,,Mostly Cloudy,260,2013-03-23 10:00:00
5:30 PM,89.6,73.4,59,29.74,6.2,West,13.8,-,N/A,,Mostly Cloudy,270,2013-03-23 10:30:00
6:00 PM,87.8,73.4,62,29.74,6.2,West,10.4,-,N/A,,Mostly Cloudy,280,2013-03-23 11:00:00
6:30 PM,87.8,73.4,62,29.74,6.2,West,8.1,-,N/A,,Scattered Clouds,270,2013-03-23 11:30:00
7:00 PM,89,76,57,29.71,6,West,8.1,,,,Scattered Clouds,270,2013-03-23 12:00:00
7:00 PM,87.8,73.4,62,29.77,6.2,West,11.5,-,N/A,,Scattered Clouds,270,2013-03-23 12:00:00
7:30 PM,84.2,73.4,70,29.77,6.2,WSW,5.8,-,N/A,,Scattered Clouds,250,2013-03-23 12:30:00
8:00 PM,84.2,75.2,74,29.80,6.2,West,8.1,-,N/A,,Scattered Clouds,270,2013-03-23 13:00:00
8:30 PM,84.2,75.2,74,29.83,6.2,Calm,Calm,-,N/A,,Scattered Clouds,0,2013-03-23 13:30:00
9:00 PM,84.2,75.2,74,29.83,6.2,South,3.5,-,N/A,,Mostly Cloudy,180,2013-03-23 14:00:00
9:30 PM,82.4,75.2,79,29.86,6.2,Calm,Calm,-,N/A,,Mostly Cloudy,0,2013-03-23 14:30:00
10:00 PM,82.4,75.2,79,29.86,6.2,Calm,Calm,-,N/A,,Mostly Cloudy,0,2013-03-23 15:00:00
10:30 PM,82.4,75.2,79,29.89,6.2,Variable,2.3,-,N/A,,Mostly Cloudy,0,2013-03-23 15:30:00
11:00 PM,84.2,73.4,70,29.89,6.2,NW,3.5,-,N/A,,Mostly Cloudy,320,2013-03-23 16:00:00
11:30 PM,82.4,73.4,74,29.89,6.2,NW,5.8,-,N/A,,Mostly Cloudy,320,2013-03-23 16:30:00